Location: Girdwood
(60.9430°N, 149.1660°W)
Time: 08:24:13
(UTC-09:00)

Iridium 86 - Visible Passes

Search period start: 07 February 2016 00:00
Search period end: 17 February 2016 00:00
Orbit: 776 x 779 km, 86.4° (Epoch: 06 February)

Date Brightness Start Highest point End Pass type
(mag) Time Alt. Az. Time Alt. Az. Time Alt. Az.
07 Feb 8.4 02:44:56 10° ENE 02:45:51 10° ENE 02:46:46 10° NE visible
07 Feb 6.6 04:24:59 40° E 04:25:14 40° E 04:30:07 10° NNE visible
07 Feb 5.7 06:05:27 47° W 06:05:57 49° WNW 06:11:03 10° N visible
07 Feb 7.2 07:45:57 12° WNW 07:48:03 14° NW 07:50:51 10° NNW visible
07 Feb 7.9 18:00:43 10° NNW 18:04:47 23° WNW 18:08:51 10° SW visible
08 Feb 7.3 03:51:46 28° E 03:51:57 28° ENE 03:56:20 10° NNE visible
08 Feb 5.4 05:32:15 73° W 05:32:17 73° W 05:37:33 10° N visible
08 Feb 6.8 07:12:44 18° WNW 07:13:59 20° WNW 07:17:47 10° N visible
09 Feb 7.8 03:18:32 19° ENE 03:18:45 19° ENE 03:22:23 10° NNE visible
09 Feb 5.6 04:59:00 74° ENE 04:59:00 74° ENE 05:03:58 10° N visible
09 Feb 6.4 06:39:29 27° WNW 06:40:02 27° WNW 06:44:31 10° N visible
09 Feb 8.3 18:35:29 10° NW 18:37:46 13° WNW 18:40:03 10° W visible
10 Feb 8.2 02:45:15 13° ENE 02:45:39 13° ENE 02:48:03 10° NE visible
10 Feb 6.3 04:25:44 50° ENE 04:25:44 50° ENE 04:30:20 10° NNE visible
10 Feb 6.0 06:06:13 39° WNW 06:06:13 39° WNW 06:11:07 10° N visible
10 Feb 7.3 07:46:41 10° WNW 07:48:32 12° NW 07:50:24 10° NNW visible
11 Feb 7.0 03:52:26 34° ENE 03:52:26 34° ENE 03:56:36 10° NNE visible
11 Feb 5.6 05:32:54 55° NW 05:32:54 55° NW 05:37:38 10° N visible
11 Feb 7.0 07:13:23 15° WNW 07:14:24 16° NW 07:17:39 10° NNW visible
12 Feb 7.5 03:19:06 24° ENE 03:19:06 24° ENE 03:22:46 10° NNE visible
12 Feb 5.6 04:59:35 66° N 04:59:35 66° N 05:04:06 10° N visible
12 Feb 6.7 06:40:03 22° WNW 06:40:23 22° WNW 06:44:29 10° N visible
12 Feb 8.6 18:37:07 10° NW 18:37:33 10° WNW 18:38:00 10° WNW visible
13 Feb 8.0 02:45:46 17° ENE 02:45:46 17° ENE 02:48:42 10° NNE visible
13 Feb 6.1 04:26:14 55° NE 04:26:14 55° NE 04:30:31 10° N visible
13 Feb 6.3 06:06:43 31° WNW 06:06:43 31° WNW 06:11:09 10° N visible
14 Feb 8.3 02:12:25 11° ENE 02:12:25 11° ENE 02:14:02 10° NE visible
14 Feb 6.7 03:52:54 39° NE 03:52:54 39° NE 03:56:50 10° NNE visible
14 Feb 6.0 05:33:21 43° NW 05:33:21 43° NW 05:37:43 10° N visible
14 Feb 7.2 07:13:50 13° WNW 07:14:52 13° NW 07:17:23 10° NNW visible
15 Feb 7.3 03:19:31 28° ENE 03:19:31 28° ENE 03:23:05 10° NNE visible
15 Feb 5.8 05:00:00 54° NNW 05:00:00 54° NNW 05:04:14 10° N visible
15 Feb 6.9 06:40:28 18° WNW 06:40:46 18° NW 06:44:24 10° NNW visible
16 Feb 7.8 02:46:08 20° ENE 02:46:08 20° ENE 02:49:10 10° NNE visible
16 Feb 6.0 04:26:36 55° NNE 04:26:36 55° NNE 04:30:40 10° N visible
16 Feb 6.6 06:07:05 25° WNW 06:07:05 25° WNW 06:11:09 10° N visible
